sat.trackr.live / text

‹ back to catalog

STARLINK-11640 [DTC]

NORAD 63314 · 2025-057H

PAYLOAD ACTIVE UNKNOWN

§ Identity

Operator
Country
US
Launch date
2025-03-18
Launch site
AFETR
Launch vehicle
Mass (kg)
RCS (m²)

Purposes: comms

External: N2YO · Heavens-Above · Gunter

§ Orbital elements

Epoch: 2026-05-25T02:23:59.479008Z

Period
91.67 min
Inclination
42.9995°
Eccentricity
0.0001260
Mean motion
15.70895099 rev/d
Perigee alt
355.5 km
Apogee alt
357.2 km
Semi-major
6,734.5 km
B*
1.1220e-3
RAAN
164.0753°
Arg perigee
274.9102°
Mean anomaly
85.1622°
Rev number
6,919

§ Raw data

STARLINK-11640 [DTC]1 63314U 25057H   26145.09999397  .00146424  00000+0  11220-2 0  99972 63314  42.9995 164.0753 0001260 274.9102  85.1622 15.70895099 69199

JSON: /api/v1/satellites/63314 · /tle

For live sub-satellite position, see the globe view (requires WebGL).

§ Visibility from observer

Set your observer location to see the next 7 days of passes ≥ 10°. The values pass through the URL so the page stays shareable.

No JS? Fill the form by hand. The geolocation button needs JavaScript.